Weather reports worldwide

Advertisment
Plymouth, United Kingdom (3827): temperature & dewpoint: 19.11.2017 09:00:00 - 25.11.2017 09:00:00 (GMT)Plymouth, United Kingdom (3827): wind speed & gusts: 19.11.2017 09:00:00 - 25.11.2017 09:00:00 (GMT)Plymouth, United Kingdom (3827): wind direction: 19.11.2017 09:00:00 - 25.11.2017 09:00:00 (GMT)Plymouth, United Kingdom (3827): reduced air pressure: 19.11.2017 09:00:00 - 25.11.2017 09:00:00 (GMT)Plymouth, United Kingdom (3827): visibility: 19.11.2017 09:00:00 - 25.11.2017 09:00:00 (GMT)Plymouth, United Kingdom (3827): precipitation: 19.11.2017 09:00:00 - 25.11.2017 09:00:00 (GMT)
Date & Time tt [°C] td [°C] ff [km/h] ff [kn] fx [km/h] fx [kn] dd ppp [hPa] vv [km] rr [mm]
25.11.2017 09:00:00 4,2 2,6 21 11 - - WNW 1020,1 7 0,2
25.11.2017 08:00:00 3,5 1,3 16 9 - - NW 1019,2 30 0,0
25.11.2017 07:00:00 2,9 1,5 13 7 - - WNW 1018,2 35 0,0
25.11.2017 06:00:00 2,6 1,2 9 5 - - NNW 1017,4 40 0,0
25.11.2017 05:00:00 2,7 1,5 11 6 - - WNW 1016,9 26 0,0
25.11.2017 04:00:00 2,6 1,6 9 5 - - NW 1016,4 24 0,8
25.11.2017 03:00:00 3,5 2,6 15 8 - - WNW 1016,2 22 0,4
25.11.2017 02:00:00 3,4 2,3 11 6 - - WNW 1015,7 45 0,2
25.11.2017 01:00:00 3,6 2,7 16 9 - - NNW 1015,3 40 0,0
25.11.2017 00:00:00 3,8 2,9 11 6 - - NNW 1015,3 35 3,2
24.11.2017 23:00:00 3,9 3,2 11 6 - - NW 1015,4 14 0,0
24.11.2017 22:00:00 2,6 1,6 4 2 - - E 1014,6 11 0,0
24.11.2017 21:00:00 3,1 1,8 5 3 - - NE 1014,5 14 0,0
24.11.2017 20:00:00 3,7 1,9 8 4 - - E 1014,0 19 0,0
24.11.2017 19:00:00 4,6 1,8 9 5 - - E 1014,0 28 0,0
24.11.2017 18:00:00 6,1 2,7 9 5 - - N 1013,7 17 0,0
24.11.2017 17:00:00 6,9 2,3 9 5 - - N 1013,5 40 0,0
24.11.2017 16:00:00 7,9 2,5 9 5 - - NW 1013,0 29 0,0
24.11.2017 15:00:00 9,1 2,5 11 6 - - NNW 1012,5 25 0,0
24.11.2017 14:00:00 10,2 2,1 9 5 - - NNW 1012,3 35 0,0
24.11.2017 13:00:00 10,2 3,9 9 5 - - N 1012,4 29 0,0
24.11.2017 12:00:00 9,2 4,3 5 3 - - NNW 1012,6 24 0,0
24.11.2017 11:00:00 7,8 4,1 4 2 - - N 1012,7 35 0,0
24.11.2017 10:00:00 5,7 4,3 2 1 - - N 1012,2 30 0,0
24.11.2017 09:00:00 5,3 4,2 4 2 - - N 1011,4 - 0,0
24.11.2017 08:00:00 5,2 3,7 5 3 - - N 1010,6 30 0,0
24.11.2017 07:00:00 5,5 3,7 5 3 - - N 1009,8 30 0,0
24.11.2017 06:00:00 6,2 4,1 9 5 - - NNE 1009,6 26 0,0
24.11.2017 05:00:00 7,2 5,0 8 4 - - NNW 1009,0 11 0,0
24.11.2017 04:00:00 7,9 5,9 9 5 - - W 1008,1 15 0,0
24.11.2017 03:00:00 7,4 4,9 13 7 - - WSW 1007,9 10 0,2
24.11.2017 02:00:00 7,9 4,2 11 6 - - NW 1007,5 30 0,0
24.11.2017 01:00:00 8,4 4,8 13 7 - - W 1006,9 16 0,0
24.11.2017 00:00:00 7,8 3,9 8 4 - - W 1006,6 16 0,0
23.11.2017 23:00:00 8,2 3,6 8 4 - - WNW 1006,4 19 0,0
23.11.2017 22:00:00 8,6 3,0 9 5 - - WNW 1006,1 25 0,0
23.11.2017 21:00:00 9,3 2,9 18 10 - - W 1006,7 15 0,0
23.11.2017 20:00:00 10,0 2,6 21 11 - - WSW 1006,7 14 0,0
23.11.2017 19:00:00 9,4 4,5 13 7 - - WSW 1006,0 10 0,0
23.11.2017 18:00:00 10,0 4,6 24 13 - - W 1006,7 11 0,0
23.11.2017 17:00:00 10,2 2,7 31 17 - - WSW 1005,6 17 0,0
23.11.2017 16:00:00 10,0 3,5 31 17 - - WSW 1004,9 16 0,0
23.11.2017 15:00:00 9,9 3,1 28 15 57 31 W 1004,4 16 0,0
23.11.2017 14:00:00 11,2 4,6 26 14 57 31 W 1003,8 9 0,0
23.11.2017 13:00:00 11,2 4,3 44 24 61 33 WSW 1003,4 10 0,0
23.11.2017 12:00:00 11,2 5,2 42 23 63 34 WSW 1002,7 10 0,0
23.11.2017 11:00:00 10,3 4,5 41 22 55 30 WSW 1002,1 16 0,0
23.11.2017 10:00:00 9,7 4,6 41 22 55 30 WSW 1001,0 17 0,0
23.11.2017 09:00:00 8,7 4,9 29 16 48 26 W 999,8 14 0,0
23.11.2017 08:00:00 7,8 4,8 29 16 - - WSW 998,2 19 0,0
23.11.2017 07:00:00 6,8 3,9 26 14 - - W 996,6 23 0,0
23.11.2017 06:00:00 7,8 6,0 28 15 54 29 W 995,2 30 0,0
23.11.2017 05:00:00 8,6 7,3 28 15 50 27 W 993,2 28 0,0
23.11.2017 04:00:00 10,6 9,9 35 19 50 27 W 990,8 26 -
23.11.2017 03:00:00 11,8 11,2 35 19 55 30 WSW 988,9 11 0,8
23.11.2017 02:00:00 12,4 12,2 37 20 54 29 SW 987,5 9 0,0
23.11.2017 01:00:00 12,1 12,0 26 14 - - WSW 986,7 9 0,2
23.11.2017 00:00:00 12,1 12,0 28 15 - - SW 986,7 8 0,6
22.11.2017 23:00:00 12,1 12,1 29 16 50 27 SSW 986,6 2,5 3,2
22.11.2017 22:00:00 11,9 11,6 37 20 61 33 SSW 987,4 2,4 2,6
22.11.2017 21:00:00 12,0 11,4 52 28 89 48 SSW 987,6 1,5 10,8
22.11.2017 20:00:00 12,4 11,3 55 30 85 46 SSW 987,9 3,4 1,0
22.11.2017 19:00:00 13,6 12,3 57 31 78 42 SSW 988,4 5 0,0
22.11.2017 18:00:00 14,0 11,9 55 30 81 44 SSW 989,5 6 0,0
22.11.2017 17:00:00 14,3 11,7 63 34 81 44 S 990,2 6 0,0
22.11.2017 16:00:00 14,3 11,4 59 32 85 46 S 991,2 7 0,0
22.11.2017 15:00:00 14,5 10,6 50 27 80 43 S 992,3 10 0,0
22.11.2017 14:00:00 14,1 12,4 54 29 83 45 S 993,7 6 0,0
22.11.2017 13:00:00 14,2 12,5 61 33 83 45 S 994,9 7 0,0
22.11.2017 12:00:00 14,2 12,5 61 33 83 45 S 995,6 7 0,0
22.11.2017 11:00:00 14,0 12,4 55 30 81 44 S 996,6 7 0,0
22.11.2017 10:00:00 14,1 12,5 57 31 74 40 S 998,0 7 0,0
22.11.2017 09:00:00 13,8 12,5 55 30 72 39 S 998,6 7 0,0
22.11.2017 08:00:00 13,5 12,5 46 25 67 36 SSW 999,6 6 0,0
22.11.2017 07:00:00 13,6 12,4 41 22 61 33 SSW 1000,2 7 0,0
22.11.2017 06:00:00 13,5 12,4 46 25 65 35 SSW 1000,7 7 0,0
22.11.2017 05:00:00 13,4 12,3 50 27 63 34 SSW 1001,7 7 0,0
22.11.2017 04:00:00 13,2 12,3 44 24 59 32 SSW 1002,7 7 0,0
22.11.2017 03:00:00 13,3 12,4 41 22 57 31 SSW 1003,7 7 0,0
22.11.2017 02:00:00 13,2 12,3 34 18 48 26 SSW 1004,4 7 0,0
22.11.2017 01:00:00 13,4 12,0 34 18 61 33 SSW 1005,4 8 0,0
22.11.2017 00:00:00 13,5 12,0 42 23 61 33 SW 1006,3 7 0,0
21.11.2017 23:00:00 13,4 12,4 42 23 59 32 SW 1006,3 8 0,0
21.11.2017 22:00:00 13,4 12,3 39 21 55 30 SW 1006,9 9 0,0
21.11.2017 21:00:00 13,6 11,9 39 21 59 32 SW 1007,3 10 0,0
21.11.2017 20:00:00 13,5 11,9 35 19 55 30 SW 1007,6 9 0,0
21.11.2017 19:00:00 13,5 12,0 39 21 54 29 SW 1008,1 7 0,0
21.11.2017 18:00:00 13,5 12,2 41 22 54 29 SSW 1008,4 7 0,0
21.11.2017 17:00:00 13,5 12,2 39 21 50 27 SSW 1009,2 9 0,0
21.11.2017 16:00:00 13,5 12,2 37 20 50 27 SSW 1009,5 9 0,0
21.11.2017 15:00:00 13,5 12,2 31 17 46 25 SSW 1010,0 9 -
21.11.2017 14:00:00 13,7 12,3 31 17 - - SW 1010,3 8 0,0
21.11.2017 13:00:00 13,9 12,5 29 16 - - SW 1011,1 9 0,0
21.11.2017 12:00:00 13,3 12,1 31 17 - - SSW 1011,9 11 0,0
21.11.2017 11:00:00 13,2 11,6 29 16 - - SSW 1012,8 13 -
21.11.2017 10:00:00 12,9 11,0 26 14 - - SW 1012,9 12 -
21.11.2017 09:00:00 12,4 10,7 21 11 - - SW 1013,4 15 0,0
21.11.2017 08:00:00 12,3 10,0 18 10 - - WSW 1013,2 13 0,0
21.11.2017 07:00:00 12,2 10,0 21 11 - - WSW 1013,1 12 0,0
21.11.2017 06:00:00 12,3 9,7 21 11 - - SW 1013,4 26 0,0
21.11.2017 05:00:00 12,4 9,5 21 11 - - WSW 1013,9 14 0,0
21.11.2017 04:00:00 12,4 10,1 18 10 - - WSW 1014,1 14 0,0
21.11.2017 03:00:00 12,4 9,6 24 13 - - SW 1014,5 12 0,0
21.11.2017 02:00:00 12,4 10,9 18 10 - - SW 1015,1 22 0,0
21.11.2017 01:00:00 12,0 11,1 11 6 - - WSW 1015,6 13 0,0
21.11.2017 00:00:00 11,5 10,5 11 6 - - WSW 1015,8 15 0,0
20.11.2017 23:00:00 11,9 10,6 16 9 - - WSW 1016,1 15 0,0
20.11.2017 22:00:00 11,9 10,3 21 11 - - W 1016,3 16 0,0
20.11.2017 21:00:00 12,3 10,7 18 10 - - WSW 1016,7 15 0,0
20.11.2017 20:00:00 12,5 10,9 22 12 - - WSW 1016,9 13 0,0
20.11.2017 19:00:00 12,4 10,9 24 13 - - W 1016,7 11 0,0
20.11.2017 18:00:00 12,6 11,0 22 12 - - WSW 1017,0 17 0,0
20.11.2017 17:00:00 12,7 11,0 28 15 48 26 WSW 1017,0 10 0,0
20.11.2017 16:00:00 12,8 11,2 24 13 - - WSW 1017,1 17 0,0
20.11.2017 15:00:00 13,0 11,0 28 15 46 25 SW 1017,1 16 0,0
20.11.2017 14:00:00 13,1 10,8 31 17 46 25 WSW 1017,4 13 0,0
20.11.2017 13:00:00 12,9 10,6 28 15 - - WSW 1018,1 12 0,0
20.11.2017 12:00:00 12,7 10,3 28 15 - - WSW 1018,5 12 0,0
20.11.2017 11:00:00 12,7 10,4 29 16 46 25 WSW 1019,0 17 0,0
20.11.2017 10:00:00 12,6 10,3 31 17 50 27 WSW 1019,1 13 0,0
20.11.2017 09:00:00 12,4 9,8 37 20 55 30 WSW 1019,1 22 0,0
20.11.2017 08:00:00 12,4 9,6 41 22 54 29 WSW 1019,0 15 0,0
20.11.2017 07:00:00 12,3 9,6 34 18 52 28 WSW 1019,0 19 0,0
20.11.2017 06:00:00 12,1 9,3 29 16 52 28 WSW 1019,5 17 0,0
20.11.2017 05:00:00 12,0 8,6 29 16 48 26 WSW 1019,8 23 0,0
20.11.2017 04:00:00 11,8 8,1 31 17 52 28 WSW 1020,4 25 0,0
20.11.2017 03:00:00 11,7 8,5 29 16 - - WSW 1020,9 50 0,0
20.11.2017 02:00:00 11,5 8,4 29 16 - - WSW 1021,4 21 -
20.11.2017 01:00:00 11,3 8,7 22 12 - - SW 1021,9 24 0,0
20.11.2017 00:00:00 11,3 9,5 26 14 - - WSW 1022,5 24 0,0
19.11.2017 23:00:00 9,6 9,5 5 3 - - WSW 1023,1 8 0,0
19.11.2017 22:00:00 9,0 8,9 4 2 - - ESE 1023,7 4,5 0,0
19.11.2017 21:00:00 8,9 8,7 8 4 - - E 1023,9 3,5 -
19.11.2017 20:00:00 9,0 8,7 5 3 - - E 1024,0 4,8 0,0
19.11.2017 19:00:00 9,2 8,8 5 3 - - E 1024,3 3,5 0,2
19.11.2017 18:00:00 9,3 8,7 8 4 - - E 1024,1 10 0,0
19.11.2017 17:00:00 9,4 8,4 8 4 - - E 1024,3 7 0,2
19.11.2017 16:00:00 10,1 7,8 4 2 - - ESE 1024,5 20 0,0
19.11.2017 15:00:00 10,5 7,3 5 3 - - ESE 1024,7 30 0,0
19.11.2017 14:00:00 10,8 6,9 4 2 - - S 1024,9 30 0,0
19.11.2017 13:00:00 10,9 5,8 4 2 - - ESE 1025,2 27 0,0
19.11.2017 12:00:00 11,1 6,4 0 0 - - N 1025,4 26 0,0
19.11.2017 11:00:00 10,6 6,7 5 3 - - ESE 1025,4 17 0,0
19.11.2017 10:00:00 9,6 6,7 4 2 - - E 1025,1 26 0,0
19.11.2017 09:00:00 8,8 7,0 5 3 - - E 1025,2 15 0,0

tt = temperature
td = dewpoint
ff = wind speed
fx = gusts
dd = wind direction
ppp = reduced air pressure
vv = visibility
rr = precipitation

Next stations